Tracking 27079 objects as of 23-Mar-2023
HD Live streaming from Space Station
objects crossing your sky now

STARLINK-3727

Track STARLINK-3727 now!
10-day predictions
STARLINK-3727 is classified as:


NORAD ID: 52125
Int'l Code: 2022-029AP
Perigee: 546.1 km
Apogee: 547.6 km
Inclination: 53.2 °
Period: 95.4 minutes
Semi major axis: 6917 km
RCS: Unknown
Launch date: March 19, 2022
Source: United States (US)
Launch site: AIR FORCE EASTERN TEST RANGE (AFETR)
Your satellite tracking list
Your tracking list is empty




NASA's NSSDC Master Catalog

Two Line Element Set (TLE):
1 52125U 22029AP  23081.20099418  .00002540  00000-0  17758-3 0  9999
2 52125  53.2164 253.0908 0001082  70.9821 289.1288 15.08842764 57367
Source of the keplerian elements: AFSPC